Time,TemperatureF,DewpointF,PressureIn,WindDirection,WindDirectionDegrees,WindSpeedMPH,WindSpeedGustMPH,Humidity,HourlyPrecipIn,Conditions,Clouds,dailyrainin,SoftwareType,DateUTC
2013-01-16 00:00:00,45.4,45.1,30.02,NE,38,0.0,0.0,99,0.00,,,0.01,LWC V2.00 B2112,2013-01-16 05:00:00,
2013-01-16 00:01:00,45.4,45.1,30.02,NE,38,0.0,0.0,99,0.00,,,0.01,LWC V2.00 B2112,2013-01-16 05:01:00,
2013-01-16 00:06:00,45.5,45.2,30.02,NE,38,0.0,0.0,99,0.00,,,0.01,LWC V2.00 B2112,2013-01-16 05:06:00,
2013-01-16 00:11:00,45.5,45.2,30.02,NE,38,0.0,1.0,99,0.00,,,0.01,LWC V2.00 B2112,2013-01-16 05:11:00,
2013-01-16 00:16:00,45.5,45.2,30.02,NE,38,0.0,0.0,99,0.00,,,0.01,LWC V2.00 B2112,2013-01-16 05:16:00,
2013-01-16 00:21:00,45.5,45.2,30.02,NE,38,0.0,0.0,99,0.00,,,0.01,LWC V2.00 B2112,2013-01-16 05:21:00,
2013-01-16 00:26:00,45.7,45.4,30.03,NE,38,0.0,0.0,99,0.00,,,0.01,LWC V2.00 B2112,2013-01-16 05:26:00,
2013-01-16 00:31:00,45.7,45.4,30.03,NE,38,0.0,0.0,99,0.00,,,0.01,LWC V2.00 B2112,2013-01-16 05:31:00,
2013-01-16 00:36:00,45.5,45.2,30.03,NE,38,0.0,0.0,99,0.00,,,0.01,LWC V2.00 B2112,2013-01-16 05:36:00,
2013-01-16 00:41:00,45.5,45.2,30.01,NE,38,0.0,0.0,99,0.00,,,0.01,LWC V2.00 B2112,2013-01-16 05:41:00,
2013-01-16 00:46:00,45.5,45.2,30.01,NE,38,0.0,0.0,99,0.00,,,0.01,LWC V2.00 B2112,2013-01-16 05:46:00,
2013-01-16 00:51:00,45.5,45.2,30.01,NE,38,0.0,0.0,99,0.00,,,0.01,LWC V2.00 B2112,2013-01-16 05:51:00,
2013-01-16 00:56:00,45.5,45.2,29.99,NE,38,0.0,0.0,99,0.00,,,0.01,LWC V2.00 B2112,2013-01-16 05:56:00,
2013-01-16 01:01:00,45.5,45.2,29.99,NE,38,0.0,0.0,99,0.00,,,0.01,LWC V2.00 B2112,2013-01-16 06:01:00,
2013-01-16 01:06:00,45.7,45.4,29.99,NE,38,0.0,0.0,99,0.00,,,0.01,LWC V2.00 B2112,2013-01-16 06:06:00,
2013-01-16 01:11:00,45.7,45.4,30.00,NE,38,0.0,0.0,99,0.00,,,0.01,LWC V2.00 B2112,2013-01-16 06:11:00,
2013-01-16 01:16:00,45.5,45.2,30.00,NE,38,0.0,0.0,99,0.00,,,0.01,LWC V2.00 B2112,2013-01-16 06:16:00,
2013-01-16 01:21:00,45.5,45.2,30.00,NE,38,0.0,0.0,99,0.00,,,0.01,LWC V2.00 B2112,2013-01-16 06:21:00,
2013-01-16 01:26:00,45.7,45.4,30.01,NE,38,0.0,0.0,99,0.00,,,0.01,LWC V2.00 B2112,2013-01-16 06:26:00,
2013-01-16 01:31:00,45.5,45.2,30.01,NE,38,0.0,0.0,99,0.00,,,0.01,LWC V2.00 B2112,2013-01-16 06:31:00,
2013-01-16 01:36:00,45.5,45.2,30.01,NE,38,0.0,0.0,99,0.00,,,0.01,LWC V2.00 B2112,2013-01-16 06:36:00,
2013-01-16 01:41:00,45.5,45.2,30.00,NE,38,0.0,0.0,99,0.00,,,0.01,LWC V2.00 B2112,2013-01-16 06:41:00,
2013-01-16 01:46:00,45.4,45.1,30.00,NE,38,0.0,0.0,99,0.00,,,0.01,LWC V2.00 B2112,2013-01-16 06:46:00,
2013-01-16 01:51:00,45.4,45.1,30.00,NE,38,0.0,0.0,99,0.00,,,0.01,LWC V2.00 B2112,2013-01-16 06:51:00,
2013-01-16 01:56:00,45.5,45.2,29.99,NE,38,0.0,0.0,99,0.00,,,0.01,LWC V2.00 B2112,2013-01-16 06:56:00,
2013-01-16 02:01:00,45.5,45.2,29.99,NE,38,0.0,0.0,99,0.00,,,0.01,LWC V2.00 B2112,2013-01-16 07:01:00,
2013-01-16 02:06:00,45.5,45.2,29.99,NE,38,0.0,1.0,99,0.00,,,0.01,LWC V2.00 B2112,2013-01-16 07:06:00,
2013-01-16 02:11:00,45.5,45.2,30.01,NE,38,0.0,0.0,99,0.00,,,0.01,LWC V2.00 B2112,2013-01-16 07:11:00,
2013-01-16 02:16:00,45.5,45.2,30.01,NE,38,0.0,0.0,99,0.00,,,0.01,LWC V2.00 B2112,2013-01-16 07:16:00,
2013-01-16 02:21:00,45.5,45.2,30.01,NE,38,0.0,0.0,99,0.00,,,0.01,LWC V2.00 B2112,2013-01-16 07:21:00,
2013-01-16 02:26:00,45.4,45.1,30.01,NE,38,0.0,0.0,99,0.00,,,0.01,LWC V2.00 B2112,2013-01-16 07:26:00,
2013-01-16 02:31:00,45.4,45.1,30.01,NE,38,0.0,0.0,99,0.00,,,0.01,LWC V2.00 B2112,2013-01-16 07:31:00,
2013-01-16 02:36:00,45.4,45.1,30.01,NE,38,0.0,0.0,99,0.00,,,0.01,LWC V2.00 B2112,2013-01-16 07:36:00,
2013-01-16 02:41:00,45.4,45.1,30.01,NE,38,0.0,0.0,99,0.00,,,0.01,LWC V2.00 B2112,2013-01-16 07:41:00,
2013-01-16 02:46:00,45.4,45.1,30.01,NE,38,0.0,0.0,99,0.00,,,0.01,LWC V2.00 B2112,2013-01-16 07:46:00,
2013-01-16 02:51:00,45.2,44.9,30.01,NE,38,0.0,0.0,99,0.00,,,0.01,LWC V2.00 B2112,2013-01-16 07:51:00,
2013-01-16 02:56:00,45.4,45.1,30.00,NE,38,0.0,0.0,99,0.00,,,0.01,LWC V2.00 B2112,2013-01-16 07:56:00,
2013-01-16 03:01:00,45.4,45.1,30.00,NE,38,0.0,0.0,99,0.00,,,0.01,LWC V2.00 B2112,2013-01-16 08:01:00,
2013-01-16 03:06:00,45.2,44.9,30.00,NE,38,0.0,0.0,99,0.00,,,0.01,LWC V2.00 B2112,2013-01-16 08:06:00,
2013-01-16 03:11:00,45.2,44.9,30.00,NE,38,0.0,0.0,99,0.00,,,0.01,LWC V2.00 B2112,2013-01-16 08:11:00,
2013-01-16 03:16:00,45.2,44.9,30.00,NE,38,0.0,0.0,99,0.00,,,0.01,LWC V2.00 B2112,2013-01-16 08:16:00,
2013-01-16 03:21:00,45.2,44.9,30.00,NE,38,0.0,0.0,99,0.00,,,0.01,LWC V2.00 B2112,2013-01-16 08:21:00,
2013-01-16 03:26:00,45.2,44.9,30.00,NE,38,0.0,0.0,99,0.00,,,0.01,LWC V2.00 B2112,2013-01-16 08:26:00,
2013-01-16 03:31:00,45.1,44.8,30.00,NE,46,0.0,0.0,99,0.00,,,0.01,LWC V2.00 B2112,2013-01-16 08:31:00,
2013-01-16 03:36:00,45.1,44.8,30.00,NE,46,0.0,0.0,99,0.00,,,0.01,LWC V2.00 B2112,2013-01-16 08:36:00,
2013-01-16 03:41:00,45.1,44.8,30.00,NE,46,0.0,0.0,99,0.00,,,0.01,LWC V2.00 B2112,2013-01-16 08:41:00,
2013-01-16 03:46:00,45.1,44.8,30.00,NE,46,0.0,0.0,99,0.00,,,0.01,LWC V2.00 B2112,2013-01-16 08:46:00,
2013-01-16 03:51:00,45.1,44.8,30.00,NE,47,0.0,0.0,99,0.00,,,0.01,LWC V2.00 B2112,2013-01-16 08:51:00,
2013-01-16 03:56:00,44.9,44.6,29.99,NE,47,0.0,0.0,99,0.00,,,0.01,LWC V2.00 B2112,2013-01-16 08:56:00,
2013-01-16 04:01:00,44.9,44.6,29.99,NE,47,0.0,0.0,99,0.00,,,0.01,LWC V2.00 B2112,2013-01-16 09:01:00,
2013-01-16 04:06:00,44.9,44.6,29.99,NE,47,0.0,0.0,99,0.00,,,0.01,LWC V2.00 B2112,2013-01-16 09:06:00,
2013-01-16 04:11:00,44.9,44.6,29.99,NE,47,0.0,0.0,99,0.00,,,0.01,LWC V2.00 B2112,2013-01-16 09:11:00,
2013-01-16 04:16:00,44.9,44.6,29.99,NE,47,0.0,0.0,99,0.00,,,0.01,LWC V2.00 B2112,2013-01-16 09:16:00,
2013-01-16 04:21:00,44.9,44.6,29.99,NE,47,0.0,0.0,99,0.00,,,0.01,LWC V2.00 B2112,2013-01-16 09:21:00,
2013-01-16 04:26:00,44.9,44.6,29.98,NE,47,0.0,0.0,99,0.00,,,0.01,LWC V2.00 B2112,2013-01-16 09:26:00,
2013-01-16 04:31:00,44.8,44.5,29.98,NE,47,0.0,0.0,99,0.00,,,0.02,LWC V2.00 B2112,2013-01-16 09:31:00,
2013-01-16 04:36:00,44.8,44.5,29.98,NE,47,0.0,0.0,99,0.00,,,0.02,LWC V2.00 B2112,2013-01-16 09:36:00,
2013-01-16 04:41:00,44.8,44.5,29.98,NE,47,0.0,0.0,99,0.00,,,0.02,LWC V2.00 B2112,2013-01-16 09:41:00,
2013-01-16 04:46:00,44.8,44.5,29.98,NE,47,0.0,0.0,99,0.00,,,0.02,LWC V2.00 B2112,2013-01-16 09:46:00,
2013-01-16 04:51:00,44.8,44.5,29.98,NE,47,0.0,0.0,99,0.00,,,0.02,LWC V2.00 B2112,2013-01-16 09:51:00,
2013-01-16 04:56:00,44.8,44.5,29.99,NE,47,0.0,0.0,99,0.00,,,0.02,LWC V2.00 B2112,2013-01-16 09:56:00,
2013-01-16 05:02:00,44.8,44.5,29.99,NE,47,0.0,0.0,99,0.00,,,0.02,LWC V2.00 B2112,2013-01-16 10:02:00,
2013-01-16 05:07:00,44.6,44.3,29.99,NE,47,0.0,0.0,99,0.00,,,0.02,LWC V2.00 B2112,2013-01-16 10:07:00,
2013-01-16 05:12:00,44.6,44.3,29.99,NE,47,0.0,0.0,99,0.00,,,0.00,LWC V2.00 B2112,2013-01-16 10:12:00,
2013-01-16 05:17:00,44.6,44.3,29.99,NE,47,0.0,0.0,99,0.00,,,0.00,LWC V2.00 B2112,2013-01-16 10:17:00,
2013-01-16 05:22:00,44.6,44.3,29.99,NE,47,0.0,0.0,99,0.00,,,0.00,LWC V2.00 B2112,2013-01-16 10:22:00,
2013-01-16 05:27:00,44.6,44.3,29.98,NE,47,0.0,0.0,99,0.00,,,0.00,LWC V2.00 B2112,2013-01-16 10:27:00,
2013-01-16 05:32:00,44.6,44.3,29.98,NE,47,0.0,0.0,99,0.00,,,0.01,LWC V2.00 B2112,2013-01-16 10:32:00,
2013-01-16 05:37:00,44.5,44.2,29.98,NE,47,0.0,0.0,99,0.00,,,0.01,LWC V2.00 B2112,2013-01-16 10:37:00,
2013-01-16 05:42:00,44.3,44.0,29.98,NE,47,0.0,0.0,99,0.06,,,0.02,LWC V2.00 B2112,2013-01-16 10:42:00,
2013-01-16 05:47:00,44.3,44.0,29.98,North,0,0.0,1.0,99,0.06,,,0.02,LWC V2.00 B2112,2013-01-16 10:47:00,
2013-01-16 05:52:00,44.2,43.9,29.98,North,0,0.0,0.0,99,0.06,,,0.02,LWC V2.00 B2112,2013-01-16 10:52:00,
2013-01-16 05:57:00,44.2,43.9,29.98,North,0,0.0,0.0,99,0.04,,,0.02,LWC V2.00 B2112,2013-01-16 10:57:00,
2013-01-16 06:02:00,44.2,43.9,29.98,North,0,0.0,0.0,99,0.00,,,0.02,LWC V2.00 B2112,2013-01-16 11:02:00,
2013-01-16 06:07:00,44.2,43.9,29.98,North,0,0.0,0.0,99,0.00,,,0.02,LWC V2.00 B2112,2013-01-16 11:07:00,
2013-01-16 06:12:00,44.2,43.9,29.98,North,0,0.0,0.0,99,0.00,,,0.02,LWC V2.00 B2112,2013-01-16 11:12:00,
2013-01-16 06:17:00,44.2,43.9,29.98,North,0,0.0,0.0,99,0.00,,,0.02,LWC V2.00 B2112,2013-01-16 11:17:00,
2013-01-16 06:22:00,44.2,43.9,29.98,North,0,0.0,0.0,99,0.00,,,0.02,LWC V2.00 B2112,2013-01-16 11:22:00,
2013-01-16 06:27:00,44.2,43.9,29.98,North,0,0.0,0.0,99,0.00,,,0.02,LWC V2.00 B2112,2013-01-16 11:27:00,
2013-01-16 06:32:00,44.2,43.9,29.98,North,0,0.0,0.0,99,0.00,,,0.02,LWC V2.00 B2112,2013-01-16 11:32:00,
2013-01-16 06:37:00,44.2,43.9,29.98,North,0,0.0,0.0,99,0.00,,,0.02,LWC V2.00 B2112,2013-01-16 11:37:00,
2013-01-16 06:42:00,44.2,43.9,29.96,North,0,0.0,0.0,99,0.00,,,0.02,LWC V2.00 B2112,2013-01-16 11:42:00,
2013-01-16 06:47:00,44.2,43.9,29.96,North,0,0.0,0.0,99,0.00,,,0.02,LWC V2.00 B2112,2013-01-16 11:47:00,
2013-01-16 06:52:00,44.2,43.9,29.96,North,0,0.0,0.0,99,0.00,,,0.02,LWC V2.00 B2112,2013-01-16 11:52:00,
2013-01-16 06:57:00,44.2,43.9,29.97,North,0,0.0,0.0,99,0.00,,,0.02,LWC V2.00 B2112,2013-01-16 11:57:00,
2013-01-16 07:02:00,44.2,43.9,29.97,North,0,0.0,0.0,99,0.00,,,0.02,LWC V2.00 B2112,2013-01-16 12:02:00,
2013-01-16 07:07:00,44.2,43.9,29.97,North,0,0.0,1.0,99,0.00,,,0.02,LWC V2.00 B2112,2013-01-16 12:07:00,
2013-01-16 07:12:00,44.2,43.9,29.98,North,0,0.0,0.0,99,0.00,,,0.02,LWC V2.00 B2112,2013-01-16 12:12:00,
2013-01-16 07:17:00,44.2,43.9,29.98,North,0,0.0,0.0,99,0.00,,,0.02,LWC V2.00 B2112,2013-01-16 12:17:00,
2013-01-16 07:22:00,44.2,43.9,29.98,North,0,0.0,0.0,99,0.00,,,0.02,LWC V2.00 B2112,2013-01-16 12:22:00,
2013-01-16 07:27:00,44.1,43.8,29.98,North,0,0.0,0.0,99,0.00,,,0.02,LWC V2.00 B2112,2013-01-16 12:27:00,
2013-01-16 07:32:00,44.1,43.8,29.98,North,0,0.0,0.0,99,0.00,,,0.02,LWC V2.00 B2112,2013-01-16 12:32:00,
2013-01-16 07:37:00,44.1,43.8,29.98,North,0,0.0,0.0,99,0.00,,,0.02,LWC V2.00 B2112,2013-01-16 12:37:00,
2013-01-16 07:42:00,43.9,43.6,29.99,North,0,0.0,0.0,99,0.00,,,0.02,LWC V2.00 B2112,2013-01-16 12:42:00,
2013-01-16 07:47:00,43.9,43.6,29.99,North,0,0.0,0.0,99,0.00,,,0.02,LWC V2.00 B2112,2013-01-16 12:47:00,
2013-01-16 07:52:00,43.9,43.6,29.99,North,0,0.0,0.0,99,0.00,,,0.02,LWC V2.00 B2112,2013-01-16 12:52:00,
2013-01-16 07:57:00,44.1,43.8,29.99,North,0,0.0,0.0,99,0.00,,,0.02,LWC V2.00 B2112,2013-01-16 12:57:00,
2013-01-16 08:02:00,44.1,43.8,29.99,North,0,0.0,0.0,99,0.00,,,0.02,LWC V2.00 B2112,2013-01-16 13:02:00,
2013-01-16 08:07:00,43.9,43.6,29.99,North,0,0.0,0.0,99,0.00,,,0.02,LWC V2.00 B2112,2013-01-16 13:07:00,
2013-01-16 08:12:00,43.9,43.6,29.99,North,0,0.0,0.0,99,0.00,,,0.02,LWC V2.00 B2112,2013-01-16 13:12:00,
2013-01-16 08:17:00,43.9,43.6,29.99,North,0,0.0,0.0,99,0.00,,,0.02,LWC V2.00 B2112,2013-01-16 13:17:00,
2013-01-16 08:22:00,43.9,43.6,29.99,North,0,0.0,0.0,99,0.00,,,0.02,LWC V2.00 B2112,2013-01-16 13:22:00,
2013-01-16 08:27:00,44.1,43.8,29.99,North,0,0.0,0.0,99,0.00,,,0.02,LWC V2.00 B2112,2013-01-16 13:27:00,
2013-01-16 08:32:00,44.1,43.8,29.99,North,0,0.0,0.0,99,0.00,,,0.02,LWC V2.00 B2112,2013-01-16 13:32:00,
2013-01-16 08:37:00,44.1,43.8,29.99,North,0,0.0,0.0,99,0.00,,,0.02,LWC V2.00 B2112,2013-01-16 13:37:00,
2013-01-16 08:42:00,44.1,43.8,30.00,North,0,0.0,0.0,99,0.00,,,0.02,LWC V2.00 B2112,2013-01-16 13:42:00,
2013-01-16 08:47:00,44.1,43.8,30.00,North,0,0.0,0.0,99,0.00,,,0.02,LWC V2.00 B2112,2013-01-16 13:47:00,
2013-01-16 08:52:00,44.2,43.9,30.00,North,0,0.0,0.0,99,0.00,,,0.02,LWC V2.00 B2112,2013-01-16 13:52:00,
2013-01-16 08:57:00,44.2,43.9,30.00,North,0,0.0,0.0,99,0.00,,,0.02,LWC V2.00 B2112,2013-01-16 13:57:00,
2013-01-16 09:02:00,44.2,43.9,30.00,North,0,0.0,0.0,99,0.00,,,0.02,LWC V2.00 B2112,2013-01-16 14:02:00,
2013-01-16 09:07:00,44.2,43.9,30.00,North,0,0.0,0.0,99,0.00,,,0.02,LWC V2.00 B2112,2013-01-16 14:07:00,
2013-01-16 09:12:00,44.3,44.0,30.01,North,0,0.0,0.0,99,0.00,,,0.02,LWC V2.00 B2112,2013-01-16 14:12:00,
2013-01-16 09:17:00,44.5,44.2,30.01,North,0,0.0,0.0,99,0.00,,,0.02,LWC V2.00 B2112,2013-01-16 14:17:00,
2013-01-16 09:22:00,44.5,44.2,30.01,North,0,0.0,0.0,99,0.00,,,0.02,LWC V2.00 B2112,2013-01-16 14:22:00,
2013-01-16 09:27:00,44.3,44.0,30.01,North,0,0.0,0.0,99,0.00,,,0.02,LWC V2.00 B2112,2013-01-16 14:27:00,
2013-01-16 09:32:00,44.3,44.0,30.01,North,0,0.0,0.0,99,0.00,,,0.02,LWC V2.00 B2112,2013-01-16 14:32:00,
2013-01-16 09:37:00,44.3,44.0,30.01,North,0,0.0,0.0,99,0.00,,,0.02,LWC V2.00 B2112,2013-01-16 14:37:00,
2013-01-16 09:42:00,44.5,44.2,30.01,North,0,0.0,0.0,99,0.00,,,0.02,LWC V2.00 B2112,2013-01-16 14:42:00,
2013-01-16 09:47:00,44.5,44.2,30.01,North,0,0.0,0.0,99,0.00,,,0.02,LWC V2.00 B2112,2013-01-16 14:47:00,
2013-01-16 09:52:00,44.6,44.3,30.01,North,0,0.0,0.0,99,0.00,,,0.02,LWC V2.00 B2112,2013-01-16 14:52:00,
2013-01-16 09:57:00,44.6,44.3,30.01,North,0,0.0,0.0,99,0.00,,,0.02,LWC V2.00 B2112,2013-01-16 14:57:00,
2013-01-16 10:02:00,44.6,44.3,30.01,North,0,0.0,0.0,99,0.00,,,0.02,LWC V2.00 B2112,2013-01-16 15:02:00,
2013-01-16 10:07:00,44.6,44.3,30.01,North,0,0.0,0.0,99,0.00,,,0.02,LWC V2.00 B2112,2013-01-16 15:07:00,
2013-01-16 10:12:00,44.8,44.5,29.99,North,0,0.0,0.0,99,0.00,,,0.02,LWC V2.00 B2112,2013-01-16 15:12:00,
2013-01-16 10:17:00,44.8,44.5,29.99,North,0,0.0,0.0,99,0.00,,,0.02,LWC V2.00 B2112,2013-01-16 15:17:00,
2013-01-16 10:22:00,44.8,44.5,29.99,North,0,0.0,0.0,99,0.00,,,0.02,LWC V2.00 B2112,2013-01-16 15:22:00,
2013-01-16 10:27:00,44.9,44.6,30.00,North,0,0.0,0.0,99,0.00,,,0.02,LWC V2.00 B2112,2013-01-16 15:27:00,
2013-01-16 10:32:00,44.9,44.6,30.00,North,0,0.0,0.0,99,0.00,,,0.02,LWC V2.00 B2112,2013-01-16 15:32:00,
2013-01-16 10:37:00,45.1,44.8,30.00,North,0,0.0,0.0,99,0.00,,,0.02,LWC V2.00 B2112,2013-01-16 15:37:00,
2013-01-16 10:42:00,45.1,44.8,30.00,North,0,0.0,0.0,99,0.00,,,0.02,LWC V2.00 B2112,2013-01-16 15:42:00,
2013-01-16 10:47:00,45.1,44.8,30.00,North,0,0.0,0.0,99,0.00,,,0.02,LWC V2.00 B2112,2013-01-16 15:47:00,
2013-01-16 10:52:00,45.2,44.9,30.00,North,0,0.0,0.0,99,0.00,,,0.02,LWC V2.00 B2112,2013-01-16 15:52:00,
2013-01-16 10:57:00,45.2,44.9,29.99,North,0,0.0,0.0,99,0.00,,,0.02,LWC V2.00 B2112,2013-01-16 15:57:00,
2013-01-16 11:02:00,45.2,44.9,29.99,North,0,0.0,0.0,99,0.00,,,0.02,LWC V2.00 B2112,2013-01-16 16:02:00,
2013-01-16 11:07:00,45.2,44.9,29.99,North,0,0.0,0.0,99,0.00,,,0.02,LWC V2.00 B2112,2013-01-16 16:07:00,
2013-01-16 11:12:00,45.4,45.1,29.99,North,0,0.0,0.0,99,0.00,,,0.02,LWC V2.00 B2112,2013-01-16 16:12:00,
2013-01-16 11:17:00,45.5,45.2,29.99,North,0,0.0,1.0,99,0.00,,,0.02,LWC V2.00 B2112,2013-01-16 16:17:00,
2013-01-16 11:22:00,45.5,45.2,29.99,North,0,0.0,0.0,99,0.00,,,0.02,LWC V2.00 B2112,2013-01-16 16:22:00,
2013-01-16 11:27:00,45.4,45.1,29.99,North,0,0.0,0.0,99,0.00,,,0.02,LWC V2.00 B2112,2013-01-16 16:27:00,
2013-01-16 11:32:00,45.2,44.9,29.99,NNW,329,0.0,0.0,99,0.00,,,0.02,LWC V2.00 B2112,2013-01-16 16:32:00,
2013-01-16 11:37:00,45.1,44.8,29.99,NNW,329,0.0,1.0,99,0.00,,,0.02,LWC V2.00 B2112,2013-01-16 16:37:00,
2013-01-16 11:42:00,44.9,44.6,30.01,NNW,348,0.0,1.0,99,0.00,,,0.03,LWC V2.00 B2112,2013-01-16 16:42:00,
2013-01-16 11:47:00,44.8,44.5,30.01,NNW,348,0.0,0.0,99,0.00,,,0.03,LWC V2.00 B2112,2013-01-16 16:47:00,
2013-01-16 11:52:00,44.6,44.3,30.01,NW,311,0.0,0.0,99,0.00,,,0.03,LWC V2.00 B2112,2013-01-16 16:52:00,
2013-01-16 11:57:00,44.5,44.2,30.00,NW,312,0.0,1.0,99,0.05,,,0.04,LWC V2.00 B2112,2013-01-16 16:57:00,
2013-01-16 12:02:00,44.5,44.2,30.00,NNW,333,0.0,1.0,99,0.05,,,0.04,LWC V2.00 B2112,2013-01-16 17:02:00,
2013-01-16 12:07:00,44.3,44.0,30.00,NNW,333,0.0,0.0,99,0.04,,,0.04,LWC V2.00 B2112,2013-01-16 17:07:00,
2013-01-16 12:12:00,44.5,44.2,29.99,NNE,28,0.0,1.0,99,0.04,,,0.05,LWC V2.00 B2112,2013-01-16 17:12:00,
2013-01-16 12:17:00,44.5,44.2,29.99,SE,132,0.0,0.0,99,0.04,,,0.05,LWC V2.00 B2112,2013-01-16 17:17:00,
2013-01-16 12:22:00,44.3,44.0,29.99,SE,132,0.0,0.0,99,0.04,,,0.05,LWC V2.00 B2112,2013-01-16 17:22:00,
2013-01-16 12:27:00,44.3,44.0,29.99,SSE,148,0.0,1.0,99,0.00,,,0.05,LWC V2.00 B2112,2013-01-16 17:27:00,
2013-01-16 12:32:00,44.3,44.0,29.99,SSE,149,0.0,0.0,99,0.00,,,0.05,LWC V2.00 B2112,2013-01-16 17:32:00,
2013-01-16 12:37:00,44.3,43.8,29.99,WSW,253,0.0,0.0,98,0.00,,,0.05,LWC V2.00 B2112,2013-01-16 17:37:00,
2013-01-16 12:42:00,44.3,43.8,29.98,WSW,253,0.0,0.0,98,0.00,,,0.05,LWC V2.00 B2112,2013-01-16 17:42:00,
2013-01-16 12:47:00,44.3,43.8,29.98,WSW,253,0.0,1.0,98,0.00,,,0.05,LWC V2.00 B2112,2013-01-16 17:47:00,
2013-01-16 12:52:00,44.5,44.0,29.98,WSW,253,0.0,0.0,98,0.00,,,0.05,LWC V2.00 B2112,2013-01-16 17:52:00,
2013-01-16 12:57:00,44.5,44.0,29.99,WSW,253,0.0,0.0,98,0.00,,,0.06,LWC V2.00 B2112,2013-01-16 17:57:00,
2013-01-16 13:02:00,44.5,44.0,29.99,WSW,253,0.0,0.0,98,0.00,,,0.06,LWC V2.00 B2112,2013-01-16 18:02:00,
2013-01-16 13:07:00,44.5,44.0,29.99,WSW,253,0.0,0.0,98,0.00,,,0.06,LWC V2.00 B2112,2013-01-16 18:07:00,
2013-01-16 13:12:00,44.5,44.0,29.97,WSW,253,0.0,0.0,98,0.20,,,0.08,LWC V2.00 B2112,2013-01-16 18:12:00,
2013-01-16 13:17:00,44.5,44.0,29.97,WSW,253,0.0,0.0,98,0.19,,,0.09,LWC V2.00 B2112,2013-01-16 18:17:00,
2013-01-16 13:22:00,44.6,44.1,29.97,WSW,253,0.0,0.0,98,0.14,,,0.10,LWC V2.00 B2112,2013-01-16 18:22:00,
2013-01-16 13:27:00,44.6,44.1,29.96,WSW,253,0.0,0.0,98,0.10,,,0.11,LWC V2.00 B2112,2013-01-16 18:27:00,
2013-01-16 13:32:00,44.6,44.1,29.96,WSW,253,0.0,0.0,98,0.12,,,0.12,LWC V2.00 B2112,2013-01-16 18:32:00,
2013-01-16 13:37:00,44.8,44.3,29.96,WSW,253,0.0,1.0,98,0.07,,,0.12,LWC V2.00 B2112,2013-01-16 18:37:00,
2013-01-16 13:42:00,44.8,44.3,29.95,WSW,253,0.0,0.0,98,0.05,,,0.12,LWC V2.00 B2112,2013-01-16 18:42:00,
2013-01-16 13:47:00,44.9,44.6,29.95,WSW,253,0.0,0.0,99,0.00,,,0.12,LWC V2.00 B2112,2013-01-16 18:47:00,
2013-01-16 13:52:00,45.2,44.9,29.95,WSW,253,0.0,0.0,99,0.00,,,0.12,LWC V2.00 B2112,2013-01-16 18:52:00,
2013-01-16 13:57:00,45.4,45.1,29.94,WSW,253,0.0,0.0,99,0.00,,,0.12,LWC V2.00 B2112,2013-01-16 18:57:00,
2013-01-16 14:02:00,45.4,45.1,29.94,WSW,253,0.0,0.0,99,0.00,,,0.12,LWC V2.00 B2112,2013-01-16 19:02:00,
2013-01-16 14:07:00,45.5,45.2,29.94,WSW,253,0.0,0.0,99,0.00,,,0.12,LWC V2.00 B2112,2013-01-16 19:07:00,
2013-01-16 14:12:00,45.8,45.5,29.94,WSW,253,0.0,0.0,99,0.00,,,0.12,LWC V2.00 B2112,2013-01-16 19:12:00,
2013-01-16 14:17:00,46.0,45.7,29.94,WSW,253,0.0,0.0,99,0.00,,,0.12,LWC V2.00 B2112,2013-01-16 19:17:00,
2013-01-16 14:22:00,46.1,45.8,29.94,WSW,253,0.0,0.0,99,0.00,,,0.12,LWC V2.00 B2112,2013-01-16 19:22:00,
2013-01-16 14:27:00,46.2,45.9,29.94,WSW,253,0.0,0.0,99,0.00,,,0.12,LWC V2.00 B2112,2013-01-16 19:27:00,
2013-01-16 14:32:00,46.2,45.9,29.94,WSW,253,0.0,0.0,99,0.00,,,0.12,LWC V2.00 B2112,2013-01-16 19:32:00,
2013-01-16 14:37:00,46.4,46.1,29.94,WSW,253,0.0,0.0,99,0.00,,,0.12,LWC V2.00 B2112,2013-01-16 19:37:00,
2013-01-16 14:42:00,46.5,46.2,29.94,WSW,253,0.0,0.0,99,0.00,,,0.12,LWC V2.00 B2112,2013-01-16 19:42:00,
2013-01-16 14:47:00,46.5,46.2,29.94,WSW,253,0.0,0.0,99,0.00,,,0.12,LWC V2.00 B2112,2013-01-16 19:47:00,
2013-01-16 14:52:00,46.7,46.4,29.94,WSW,253,0.0,0.0,99,0.00,,,0.12,LWC V2.00 B2112,2013-01-16 19:52:00,
2013-01-16 14:57:00,46.7,46.4,29.94,WSW,253,0.0,0.0,99,0.00,,,0.12,LWC V2.00 B2112,2013-01-16 19:57:00,
2013-01-16 15:02:00,46.8,46.5,29.94,WSW,253,0.0,0.0,99,0.00,,,0.12,LWC V2.00 B2112,2013-01-16 20:02:00,
2013-01-16 15:07:00,47.0,46.7,29.94,WSW,253,0.0,0.0,99,0.00,,,0.12,LWC V2.00 B2112,2013-01-16 20:07:00,
2013-01-16 15:12:00,47.0,46.7,29.94,WSW,253,0.0,0.0,99,0.00,,,0.12,LWC V2.00 B2112,2013-01-16 20:12:00,
2013-01-16 15:17:00,47.1,46.8,29.94,WSW,253,0.0,0.0,99,0.00,,,0.12,LWC V2.00 B2112,2013-01-16 20:17:00,
2013-01-16 15:22:00,47.3,47.0,29.94,WSW,253,0.0,0.0,99,0.00,,,0.12,LWC V2.00 B2112,2013-01-16 20:22:00,
2013-01-16 15:27:00,47.1,46.8,29.94,WSW,253,0.0,0.0,99,0.00,,,0.12,LWC V2.00 B2112,2013-01-16 20:27:00,
2013-01-16 15:32:00,47.3,47.0,29.94,WSW,253,0.0,1.0,99,0.00,,,0.12,LWC V2.00 B2112,2013-01-16 20:32:00,
2013-01-16 15:37:00,47.3,47.0,29.94,WSW,253,0.0,0.0,99,0.00,,,0.12,LWC V2.00 B2112,2013-01-16 20:37:00,
2013-01-16 15:42:00,47.4,47.1,29.95,WSW,253,0.0,0.0,99,0.00,,,0.12,LWC V2.00 B2112,2013-01-16 20:42:00,
2013-01-16 15:47:00,47.6,47.3,29.95,WSW,253,0.0,0.0,99,0.00,,,0.12,LWC V2.00 B2112,2013-01-16 20:47:00,
2013-01-16 15:52:00,47.6,47.3,29.95,WSW,253,0.0,0.0,99,0.00,,,0.12,LWC V2.00 B2112,2013-01-16 20:52:00,
2013-01-16 15:57:00,47.6,47.3,29.94,WSW,253,0.0,0.0,99,0.00,,,0.12,LWC V2.00 B2112,2013-01-16 20:57:00,
2013-01-16 16:02:00,47.7,47.4,29.94,WSW,253,0.0,0.0,99,0.00,,,0.12,LWC V2.00 B2112,2013-01-16 21:02:00,
2013-01-16 16:07:00,47.9,47.6,29.94,WSW,253,0.0,0.0,99,0.00,,,0.12,LWC V2.00 B2112,2013-01-16 21:07:00,
2013-01-16 16:12:00,47.9,47.6,29.95,WSW,253,0.0,0.0,99,0.00,,,0.12,LWC V2.00 B2112,2013-01-16 21:12:00,
2013-01-16 16:17:00,48.0,47.7,29.95,WSW,253,0.0,0.0,99,0.00,,,0.12,LWC V2.00 B2112,2013-01-16 21:17:00,
2013-01-16 16:22:00,48.0,47.7,29.95,WSW,253,0.0,0.0,99,0.00,,,0.12,LWC V2.00 B2112,2013-01-16 21:22:00,
2013-01-16 16:27:00,48.2,47.9,29.95,WSW,253,0.0,0.0,99,0.00,,,0.12,LWC V2.00 B2112,2013-01-16 21:27:00,
2013-01-16 16:32:00,48.2,47.9,29.95,WSW,253,0.0,0.0,99,0.00,,,0.12,LWC V2.00 B2112,2013-01-16 21:32:00,
2013-01-16 16:37:00,48.2,47.9,29.95,WSW,253,0.0,0.0,99,0.00,,,0.12,LWC V2.00 B2112,2013-01-16 21:37:00,
2013-01-16 16:42:00,48.2,47.9,29.95,WSW,253,0.0,0.0,99,0.00,,,0.12,LWC V2.00 B2112,2013-01-16 21:42:00,
2013-01-16 16:47:00,48.2,47.9,29.95,WSW,253,0.0,0.0,99,0.00,,,0.12,LWC V2.00 B2112,2013-01-16 21:47:00,
2013-01-16 16:52:00,48.3,48.0,29.95,WSW,253,0.0,0.0,99,0.00,,,0.12,LWC V2.00 B2112,2013-01-16 21:52:00,
2013-01-16 16:57:00,48.3,48.0,29.95,WSW,253,0.0,0.0,99,0.00,,,0.12,LWC V2.00 B2112,2013-01-16 21:57:00,
2013-01-16 17:02:00,48.3,48.0,29.95,WSW,253,0.0,0.0,99,0.00,,,0.12,LWC V2.00 B2112,2013-01-16 22:02:00,
2013-01-16 17:07:00,48.3,48.0,29.95,WSW,253,0.0,0.0,99,0.00,,,0.12,LWC V2.00 B2112,2013-01-16 22:07:00,
2013-01-16 17:12:00,48.3,48.0,29.94,WSW,253,0.0,0.0,99,0.00,,,0.12,LWC V2.00 B2112,2013-01-16 22:12:00,
2013-01-16 17:17:00,48.3,48.0,29.94,WSW,253,0.0,0.0,99,0.00,,,0.12,LWC V2.00 B2112,2013-01-16 22:17:00,
2013-01-16 17:22:00,48.3,48.0,29.94,WSW,253,0.0,0.0,99,0.00,,,0.12,LWC V2.00 B2112,2013-01-16 22:22:00,
2013-01-16 17:27:00,48.3,48.0,29.94,WSW,253,0.0,0.0,99,0.00,,,0.12,LWC V2.00 B2112,2013-01-16 22:27:00,
2013-01-16 17:32:00,48.3,48.0,29.94,WSW,253,0.0,0.0,99,0.00,,,0.12,LWC V2.00 B2112,2013-01-16 22:32:00,
2013-01-16 17:37:00,48.2,47.9,29.94,WSW,253,0.0,0.0,99,0.00,,,0.12,LWC V2.00 B2112,2013-01-16 22:37:00,
2013-01-16 17:42:00,48.2,47.9,29.93,WSW,253,0.0,0.0,99,0.00,,,0.12,LWC V2.00 B2112,2013-01-16 22:42:00,
2013-01-16 17:47:00,48.2,47.9,29.93,WSW,253,0.0,0.0,99,0.00,,,0.12,LWC V2.00 B2112,2013-01-16 22:47:00,
2013-01-16 17:52:00,48.2,47.9,29.93,WSW,253,0.0,0.0,99,0.00,,,0.12,LWC V2.00 B2112,2013-01-16 22:52:00,
2013-01-16 17:57:00,48.3,48.0,29.94,WSW,253,0.0,0.0,99,0.00,,,0.12,LWC V2.00 B2112,2013-01-16 22:57:00,
2013-01-16 18:02:00,48.3,48.0,29.94,WSW,253,0.0,0.0,99,0.00,,,0.12,LWC V2.00 B2112,2013-01-16 23:02:00,
2013-01-16 18:07:00,48.3,48.0,29.94,WSW,253,0.0,0.0,99,0.00,,,0.12,LWC V2.00 B2112,2013-01-16 23:07:00,
2013-01-16 18:12:00,48.3,48.0,29.94,WSW,253,0.0,0.0,99,0.00,,,0.12,LWC V2.00 B2112,2013-01-16 23:12:00,
2013-01-16 18:17:00,48.3,48.0,29.94,WSW,253,0.0,0.0,99,0.00,,,0.12,LWC V2.00 B2112,2013-01-16 23:17:00,
2013-01-16 18:22:00,48.3,48.0,29.94,WSW,253,0.0,0.0,99,0.00,,,0.12,LWC V2.00 B2112,2013-01-16 23:22:00,
2013-01-16 18:27:00,48.5,48.2,29.94,WSW,253,0.0,0.0,99,0.00,,,0.12,LWC V2.00 B2112,2013-01-16 23:27:00,
2013-01-16 18:32:00,48.5,48.2,29.94,WSW,253,0.0,0.0,99,0.00,,,0.12,LWC V2.00 B2112,2013-01-16 23:32:00,
2013-01-16 18:37:00,48.5,48.2,29.94,WSW,253,0.0,0.0,99,0.00,,,0.12,LWC V2.00 B2112,2013-01-16 23:37:00,
2013-01-16 18:42:00,48.3,48.0,29.94,WSW,253,0.0,0.0,99,0.00,,,0.12,LWC V2.00 B2112,2013-01-16 23:42:00,
2013-01-16 18:47:00,48.3,48.0,29.94,WSW,253,0.0,0.0,99,0.00,,,0.12,LWC V2.00 B2112,2013-01-16 23:47:00,
2013-01-16 18:52:00,48.3,48.0,29.94,WSW,253,0.0,0.0,99,0.00,,,0.12,LWC V2.00 B2112,2013-01-16 23:52:00,
2013-01-16 18:57:00,48.3,48.0,29.95,WSW,253,0.0,0.0,99,0.00,,,0.12,LWC V2.00 B2112,2013-01-16 23:57:00,
2013-01-16 19:02:00,48.3,48.0,29.95,WSW,253,0.0,0.0,99,0.00,,,0.12,LWC V2.00 B2112,2013-01-17 00:02:00,
2013-01-16 19:07:00,48.3,48.0,29.95,WSW,253,0.0,0.0,99,0.00,,,0.12,LWC V2.00 B2112,2013-01-17 00:07:00,
2013-01-16 19:12:00,48.3,48.0,29.95,WSW,253,0.0,0.0,99,0.00,,,0.12,LWC V2.00 B2112,2013-01-17 00:12:00,
2013-01-16 19:17:00,48.3,48.0,29.95,WSW,253,0.0,0.0,99,0.00,,,0.12,LWC V2.00 B2112,2013-01-17 00:17:00,
2013-01-16 19:22:00,48.5,48.2,29.95,WSW,253,0.0,0.0,99,0.00,,,0.12,LWC V2.00 B2112,2013-01-17 00:22:00,
2013-01-16 19:27:00,48.5,48.2,29.95,WSW,253,0.0,0.0,99,0.00,,,0.12,LWC V2.00 B2112,2013-01-17 00:27:00,
2013-01-16 19:32:00,48.5,48.2,29.95,WSW,253,0.0,0.0,99,0.00,,,0.12,LWC V2.00 B2112,2013-01-17 00:32:00,
2013-01-16 19:37:00,48.5,48.2,29.95,WSW,253,0.0,0.0,99,0.00,,,0.12,LWC V2.00 B2112,2013-01-17 00:37:00,
2013-01-16 19:42:00,48.5,48.2,29.95,WSW,253,0.0,0.0,99,0.00,,,0.12,LWC V2.00 B2112,2013-01-17 00:42:00,
2013-01-16 19:47:00,48.5,48.2,29.95,WSW,253,0.0,0.0,99,0.00,,,0.12,LWC V2.00 B2112,2013-01-17 00:47:00,
2013-01-16 19:52:00,48.5,48.2,29.95,WSW,253,0.0,0.0,99,0.00,,,0.12,LWC V2.00 B2112,2013-01-17 00:52:00,
2013-01-16 19:57:00,48.5,48.2,29.96,WSW,253,0.0,0.0,99,0.00,,,0.12,LWC V2.00 B2112,2013-01-17 00:57:00,
2013-01-16 20:02:00,48.6,48.3,29.96,WSW,253,0.0,0.0,99,0.00,,,0.12,LWC V2.00 B2112,2013-01-17 01:02:00,
2013-01-16 20:07:00,48.6,48.3,29.96,WSW,253,0.0,0.0,99,0.00,,,0.12,LWC V2.00 B2112,2013-01-17 01:07:00,
2013-01-16 20:12:00,48.6,48.6,29.95,WSW,253,0.0,0.0,100,0.00,,,0.12,LWC V2.00 B2112,2013-01-17 01:12:00,
2013-01-16 20:17:00,48.8,48.8,29.95,WSW,253,0.0,0.0,100,0.00,,,0.12,LWC V2.00 B2112,2013-01-17 01:17:00,
2013-01-16 20:22:00,48.8,48.8,29.95,WSW,253,0.0,0.0,100,0.00,,,0.12,LWC V2.00 B2112,2013-01-17 01:22:00,
2013-01-16 20:27:00,48.8,48.8,29.95,WSW,253,0.0,0.0,100,0.00,,,0.12,LWC V2.00 B2112,2013-01-17 01:27:00,
2013-01-16 20:32:00,48.8,48.8,29.95,WSW,253,0.0,0.0,100,0.00,,,0.12,LWC V2.00 B2112,2013-01-17 01:32:00,
2013-01-16 20:37:00,48.9,48.9,29.95,WSW,253,0.0,0.0,100,0.00,,,0.12,LWC V2.00 B2112,2013-01-17 01:37:00,
2013-01-16 20:42:00,48.9,48.9,29.95,WSW,253,0.0,0.0,100,0.00,,,0.12,LWC V2.00 B2112,2013-01-17 01:42:00,
2013-01-16 20:47:00,48.9,48.9,29.95,WSW,253,0.0,0.0,100,0.00,,,0.12,LWC V2.00 B2112,2013-01-17 01:47:00,
2013-01-16 20:52:00,48.9,48.9,29.95,WSW,253,0.0,0.0,100,0.00,,,0.12,LWC V2.00 B2112,2013-01-17 01:52:00,
2013-01-16 20:57:00,48.9,48.9,29.96,WSW,253,0.0,0.0,100,0.00,,,0.12,LWC V2.00 B2112,2013-01-17 01:57:00,
2013-01-16 21:02:00,48.9,48.9,29.96,WSW,253,0.0,0.0,100,0.00,,,0.12,LWC V2.00 B2112,2013-01-17 02:02:00,
2013-01-16 21:07:00,48.9,48.9,29.96,WSW,253,0.0,0.0,100,0.00,,,0.12,LWC V2.00 B2112,2013-01-17 02:07:00,
2013-01-16 21:12:00,49.1,49.1,29.96,WSW,253,0.0,0.0,100,0.00,,,0.12,LWC V2.00 B2112,2013-01-17 02:12:00,
2013-01-16 21:17:00,49.1,49.1,29.96,WSW,253,0.0,0.0,100,0.00,,,0.12,LWC V2.00 B2112,2013-01-17 02:17:00,
2013-01-16 21:22:00,49.1,49.1,29.96,WSW,253,0.0,0.0,100,0.00,,,0.12,LWC V2.00 B2112,2013-01-17 02:22:00,
2013-01-16 21:27:00,49.1,49.1,29.95,WSW,253,0.0,0.0,100,0.00,,,0.12,LWC V2.00 B2112,2013-01-17 02:27:00,
2013-01-16 21:32:00,49.1,49.1,29.95,WSW,253,0.0,0.0,100,0.00,,,0.12,LWC V2.00 B2112,2013-01-17 02:32:00,
2013-01-16 21:37:00,49.1,49.1,29.95,WSW,253,0.0,0.0,100,0.00,,,0.12,LWC V2.00 B2112,2013-01-17 02:37:00,
2013-01-16 21:42:00,49.1,49.1,29.94,WSW,253,0.0,0.0,100,0.00,,,0.12,LWC V2.00 B2112,2013-01-17 02:42:00,
2013-01-16 21:47:00,49.1,49.1,29.94,WSW,253,0.0,0.0,100,0.00,,,0.12,LWC V2.00 B2112,2013-01-17 02:47:00,
2013-01-16 21:52:00,49.1,49.1,29.94,WSW,253,0.0,0.0,100,0.00,,,0.12,LWC V2.00 B2112,2013-01-17 02:52:00,
2013-01-16 21:57:00,49.1,49.1,29.94,WSW,253,0.0,0.0,100,0.00,,,0.12,LWC V2.00 B2112,2013-01-17 02:57:00,
2013-01-16 22:02:00,49.1,49.1,29.94,WSW,253,0.0,0.0,100,0.00,,,0.12,LWC V2.00 B2112,2013-01-17 03:02:00,
2013-01-16 22:07:00,49.1,49.1,29.94,WSW,253,0.0,0.0,100,0.00,,,0.12,LWC V2.00 B2112,2013-01-17 03:07:00,
2013-01-16 22:12:00,49.1,49.1,29.93,WSW,253,0.0,0.0,100,0.00,,,0.12,LWC V2.00 B2112,2013-01-17 03:12:00,
2013-01-16 22:17:00,49.2,49.2,29.93,WSW,253,0.0,0.0,100,0.00,,,0.12,LWC V2.00 B2112,2013-01-17 03:17:00,
2013-01-16 22:22:00,49.2,49.2,29.93,WSW,253,0.0,0.0,100,0.00,,,0.12,LWC V2.00 B2112,2013-01-17 03:22:00,
2013-01-16 22:27:00,49.2,49.2,29.93,WSW,253,0.0,0.0,100,0.00,,,0.12,LWC V2.00 B2112,2013-01-17 03:27:00,
2013-01-16 22:32:00,49.2,49.2,29.93,WSW,253,0.0,0.0,100,0.00,,,0.12,LWC V2.00 B2112,2013-01-17 03:32:00,
2013-01-16 22:37:00,49.4,49.4,29.93,WSW,253,0.0,0.0,100,0.00,,,0.12,LWC V2.00 B2112,2013-01-17 03:37:00,
2013-01-16 22:42:00,49.4,49.4,29.94,WSW,253,0.0,0.0,100,0.00,,,0.12,LWC V2.00 B2112,2013-01-17 03:42:00,
2013-01-16 22:47:00,49.4,49.4,29.94,WSW,253,0.0,0.0,100,0.00,,,0.12,LWC V2.00 B2112,2013-01-17 03:47:00,
2013-01-16 22:52:00,49.4,49.4,29.94,WSW,253,0.0,0.0,100,0.00,,,0.12,LWC V2.00 B2112,2013-01-17 03:52:00,
2013-01-16 22:57:00,49.4,49.4,29.93,WSW,253,0.0,0.0,100,0.00,,,0.12,LWC V2.00 B2112,2013-01-17 03:57:00,
2013-01-16 23:02:00,49.4,49.4,29.93,WSW,253,0.0,0.0,100,0.00,,,0.12,LWC V2.00 B2112,2013-01-17 04:02:00,
2013-01-16 23:07:00,49.4,49.4,29.93,WSW,253,0.0,0.0,100,0.00,,,0.12,LWC V2.00 B2112,2013-01-17 04:07:00,
2013-01-16 23:12:00,49.4,49.4,29.94,WSW,253,0.0,0.0,100,0.00,,,0.12,LWC V2.00 B2112,2013-01-17 04:12:00,
2013-01-16 23:17:00,49.5,49.5,29.94,WSW,253,0.0,0.0,100,0.00,,,0.13,LWC V2.00 B2112,2013-01-17 04:17:00,
2013-01-16 23:22:00,49.5,49.5,29.94,WSW,253,0.0,0.0,100,0.00,,,0.13,LWC V2.00 B2112,2013-01-17 04:22:00,
2013-01-16 23:27:00,49.5,49.5,29.93,WSW,253,0.0,0.0,100,0.00,,,0.13,LWC V2.00 B2112,2013-01-17 04:27:00,
2013-01-16 23:32:00,49.6,49.6,29.93,WSW,253,0.0,0.0,100,0.00,,,0.13,LWC V2.00 B2112,2013-01-17 04:32:00,
2013-01-16 23:37:00,49.6,49.6,29.93,WSW,253,0.0,0.0,100,0.00,,,0.13,LWC V2.00 B2112,2013-01-17 04:37:00,
2013-01-16 23:42:00,49.6,49.6,29.93,WSW,253,0.0,0.0,100,0.00,,,0.13,LWC V2.00 B2112,2013-01-17 04:42:00,
2013-01-16 23:47:00,49.8,49.8,29.93,WSW,253,0.0,0.0,100,0.00,,,0.14,LWC V2.00 B2112,2013-01-17 04:47:00,
2013-01-16 23:52:00,49.8,49.8,29.93,WSW,253,0.0,0.0,100,0.00,,,0.14,LWC V2.00 B2112,2013-01-17 04:52:00,
2013-01-16 23:57:00,49.8,49.8,29.93,WSW,253,0.0,0.0,100,0.00,,,0.14,LWC V2.00 B2112,2013-01-17 04:57:00,